• In Uzbekistan
  • List of Countries
  • For 7 days
  • Water Temperature
  • Satellite Maps
  • Weather Map
  • Weather Widgets
  • user-avatar
    Login

    Hourly Weather Balod

    Today, 22 June, Friday

    Time Temperature Precipitation Wind Pressure Humidity
    00:00 +32°C° 0 mm 5 mps 725 mmHg 68%
    01:00 +32°C° 0 mm 4 mps 725 mmHg 69%
    02:00 +30°C° 0 mm 4 mps 725 mmHg 70%
    03:00 +30°C° 0 mm 4 mps 725 mmHg 71%
    04:00 +30°C° 0 mm 4 mps 725 mmHg 71%
    05:00 +29°C° 0 mm 2 mps 725 mmHg 76%
    06:00 +30°C° 0.2 mm 3 mps 725 mmHg 70%
    07:00 +31°C° 0.2 mm 3 mps 726 mmHg 64%
    08:00 +34°C° 0.2 mm 3 mps 726 mmHg 58%
    09:00 +35°C° 0 mm 3 mps 726 mmHg 52%
    10:00 +37°C° 0 mm 2 mps 725 mmHg 46%
    11:00 +39°C° 0 mm 2 mps 725 mmHg 40%
    12:00 +39°C° 0 mm 2 mps 725 mmHg 39%
    13:00 +39°C° 0 mm 1 mps 724 mmHg 37%
    14:00 +40°C° 0 mm 1 mps 724 mmHg 36%
    15:00 +39°C° 0.2 mm 2 mps 724 mmHg 39%
    16:00 +38°C° 0.2 mm 2 mps 724 mmHg 42%
    17:00 +37°C° 0.2 mm 2 mps 724 mmHg 45%
    18:00 +36°C° 0.3 mm 3 mps 724 mmHg 51%
    19:00 +35°C° 0.3 mm 4 mps 724 mmHg 57%
    20:00 +33°C° 0.3 mm 4 mps 724 mmHg 63%
    21:00 +33°C° 0.2 mm 4 mps 724 mmHg 64%
    22:00 +33°C° 0.2 mm 3 mps 724 mmHg 65%
    23:00 +31°C° 0.2 mm 3 mps 724 mmHg 66%

    Tomorrow, 23 June, Saturday

    Time Temperature Precipitation Wind Pressure Humidity
    00:00 +31°C° 0.2 mm 3 mps 724 mmHg 67%
    01:00 +31°C° 0.2 mm 2 mps 724 mmHg 68%
    02:00 +30°C° 0.2 mm 2 mps 724 mmHg 69%
    03:00 +30°C° 0.7 mm 2 mps 724 mmHg 71%
    04:00 +29°C° 0.7 mm 2 mps 724 mmHg 73%
    05:00 +29°C° 0.7 mm 3 mps 724 mmHg 75%
    06:00 +30°C° 0.5 mm 3 mps 724 mmHg 71%
    07:00 +30°C° 0.5 mm 3 mps 725 mmHg 67%
    08:00 +32°C° 0.5 mm 4 mps 725 mmHg 63%
    09:00 +34°C° 0 mm 3 mps 725 mmHg 57%
    10:00 +36°C° 0 mm 3 mps 725 mmHg 51%
    11:00 +38°C° 0 mm 2 mps 725 mmHg 44%
    12:00 +38°C° 0 mm 2 mps 724 mmHg 42%
    13:00 +39°C° 0 mm 2 mps 724 mmHg 40%
    14:00 +39°C° 0 mm 2 mps 723 mmHg 38%
    15:00 +39°C° 0 mm 2 mps 723 mmHg 39%
    16:00 +39°C° 0 mm 3 mps 722 mmHg 40%
    17:00 +39°C° 0 mm 3 mps 722 mmHg 42%
    18:00 +37°C° 0 mm 3 mps 722 mmHg 46%
    19:00 +36°C° 0 mm 3 mps 723 mmHg 50%
    20:00 +35°C° 0 mm 3 mps 723 mmHg 54%
    21:00 +34°C° 0.2 mm 4 mps 723 mmHg 57%
    22:00 +33°C° 0.2 mm 4 mps 723 mmHg 61%
    23:00 +32°C° 0.2 mm 5 mps 723 mmHg 64%

    Day after tomorrow, 24 June, Sunday

    Time Temperature Precipitation Wind Pressure Humidity
    00:00 +32°C° 0.5 mm 4 mps 723 mmHg 66%
    01:00 +30°C° 0.5 mm 4 mps 723 mmHg 69%
    02:00 +30°C° 0.5 mm 3 mps 723 mmHg 71%
    03:00 +29°C° 0.4 mm 3 mps 723 mmHg 73%
    04:00 +29°C° 0.4 mm 2 mps 723 mmHg 74%
    05:00 +29°C° 0.4 mm 2 mps 724 mmHg 76%
    06:00 +30°C° 0.1 mm 2 mps 724 mmHg 74%
    07:00 +30°C° 0.1 mm 2 mps 724 mmHg 72%
    08:00 +31°C° 0.1 mm 3 mps 724 mmHg 71%
    09:00 +33°C° 0.5 mm 3 mps 724 mmHg 64%
    10:00 +35°C° 0.5 mm 3 mps 724 mmHg 58%
    11:00 +36°C° 0.5 mm 3 mps 724 mmHg 52%
    12:00 +37°C° 0.2 mm 4 mps 724 mmHg 50%
    13:00 +38°C° 0.2 mm 4 mps 723 mmHg 47%
    14:00 +38°C° 0.2 mm 4 mps 723 mmHg 44%
    15:00 +38°C° 0.3 mm 4 mps 723 mmHg 47%
    16:00 +37°C° 0.3 mm 4 mps 722 mmHg 50%
    17:00 +36°C° 0.3 mm 4 mps 722 mmHg 53%
    18:00 +35°C° 0.1 mm 5 mps 723 mmHg 58%
    19:00 +34°C° 0.1 mm 5 mps 723 mmHg 64%
    20:00 +32°C° 0.1 mm 5 mps 723 mmHg 69%
    21:00 +32°C° 0.3 mm 5 mps 724 mmHg 71%
    22:00 +30°C° 0.3 mm 5 mps 724 mmHg 73%
    23:00 +30°C° 0.3 mm 5 mps 724 mmHg 74%

    25 June, Monday

    Time Temperature Precipitation Wind Pressure Humidity
    00:00 +30°C° 0.2 mm 5 mps 724 mmHg 76%
    01:00 +29°C° 0.2 mm 5 mps 723 mmHg 77%
    02:00 +29°C° 0.2 mm 4 mps 723 mmHg 78%
    03:00 +29°C° 0.1 mm 4 mps 723 mmHg 78%
    04:00 +29°C° 0.1 mm 4 mps 723 mmHg 77%
    05:00 +29°C° 0.1 mm 4 mps 723 mmHg 77%
    06:00 +30°C° 0 mm 4 mps 723 mmHg 72%
    07:00 +32°C° 0 mm 5 mps 724 mmHg 68%
    08:00 +33°C° 0 mm 5 mps 724 mmHg 63%
    09:00 +35°C° 0 mm 5 mps 724 mmHg 58%
    10:00 +36°C° 0 mm 5 mps 724 mmHg 54%
    11:00 +37°C° 0 mm 5 mps 723 mmHg 49%
    12:00 +39°C° 0 mm 5 mps 723 mmHg 48%
    13:00 +39°C° 0 mm 5 mps 722 mmHg 48%
    14:00 +39°C° 0 mm 5 mps 722 mmHg 47%
    15:00 +37°C° 0.5 mm 5 mps 722 mmHg 50%
    16:00 +36°C° 0.5 mm 5 mps 722 mmHg 54%
    17:00 +35°C° 0.5 mm 6 mps 721 mmHg 57%
    18:00 +34°C° 0.3 mm 6 mps 722 mmHg 61%
    19:00 +33°C° 0.3 mm 6 mps 722 mmHg 66%
    20:00 +32°C° 0.3 mm 6 mps 722 mmHg 70%
    21:00 +30°C° 1.6 mm 6 mps 722 mmHg 73%
    22:00 +30°C° 1.6 mm 6 mps 723 mmHg 75%
    23:00 +29°C° 1.6 mm 6 mps 723 mmHg 78%

    26 June, Tuesday

    Time Temperature Precipitation Wind Pressure Humidity
    00:00 +29°C° 0.1 mm 5 mps 723 mmHg 78%
    01:00 +29°C° 0.1 mm 5 mps 723 mmHg 77%
    02:00 +29°C° 0.1 mm 5 mps 722 mmHg 77%
    03:00 +29°C° 0.7 mm 4 mps 722 mmHg 77%
    04:00 +29°C° 0.7 mm 4 mps 722 mmHg 78%
    05:00 +29°C° 0.7 mm 4 mps 722 mmHg 78%
    06:00 +29°C° 0.7 mm 4 mps 723 mmHg 76%
    07:00 +30°C° 0.7 mm 4 mps 724 mmHg 74%
    08:00 +30°C° 0.7 mm 4 mps 724 mmHg 72%
    09:00 +32°C° 0.8 mm 4 mps 724 mmHg 69%
    10:00 +34°C° 0.8 mm 5 mps 724 mmHg 65%
    11:00 +35°C° 0.8 mm 5 mps 724 mmHg 61%
    12:00 +34°C° 0.2 mm 5 mps 723 mmHg 62%
    13:00 +34°C° 0.2 mm 5 mps 723 mmHg 62%
    14:00 +34°C° 0.2 mm 5 mps 722 mmHg 63%
    15:00 +34°C° 1.5 mm 5 mps 722 mmHg 64%
    16:00 +33°C° 1.5 mm 4 mps 722 mmHg 66%
    17:00 +33°C° 1.5 mm 4 mps 722 mmHg 68%
    18:00 +32°C° 1.2 mm 4 mps 722 mmHg 71%
    19:00 +30°C° 1.2 mm 4 mps 723 mmHg 74%
    20:00 +30°C° 1.2 mm 4 mps 723 mmHg 77%
    21:00 +29°C° 0.2 mm 4 mps 723 mmHg 78%
    22:00 +29°C° 0.2 mm 4 mps 723 mmHg 79%
    23:00 +29°C° 0.2 mm 4 mps 724 mmHg 80%

    27 June, Wednesday

    Time Temperature Precipitation Wind Pressure Humidity
    00:00 +28°C° 0.3 mm 4 mps 723 mmHg 80%
    01:00 +28°C° 0.3 mm 4 mps 723 mmHg 81%
    02:00 +28°C° 0.3 mm 4 mps 722 mmHg 81%
    03:00 +28°C° 0 mm 3 mps 723 mmHg 82%
    04:00 +28°C° 0 mm 3 mps 723 mmHg 82%
    05:00 +28°C° 0 mm 3 mps 723 mmHg 83%
    06:00 +29°C° 0.1 mm 3 mps 724 mmHg 79%
    07:00 +29°C° 0.1 mm 3 mps 724 mmHg 75%
    08:00 +30°C° 0.1 mm 4 mps 724 mmHg 72%
    09:00 +32°C° 0.5 mm 4 mps 724 mmHg 67%
    10:00 +34°C° 0.5 mm 4 mps 724 mmHg 62%
    11:00 +35°C° 0.5 mm 4 mps 724 mmHg 57%
    12:00 +35°C° 1.1 mm 3 mps 723 mmHg 57%
    13:00 +35°C° 1.1 mm 3 mps 723 mmHg 56%
    14:00 +35°C° 1.1 mm 2 mps 722 mmHg 56%
    15:00 +35°C° 1.2 mm 2 mps 722 mmHg 59%
    16:00 +34°C° 1.2 mm 2 mps 722 mmHg 62%
    17:00 +32°C° 1.2 mm 2 mps 722 mmHg 65%
    18:00 +33°C° 1.7 mm 3 mps 723 mmHg 68%
    19:00 +31°C° 1.7 mm 3 mps 723 mmHg 72%
    20:00 +30°C° 1.7 mm 4 mps 724 mmHg 75%
    21:00 +30°C° 1.1 mm 4 mps 724 mmHg 76%
    22:00 +29°C° 1.1 mm 4 mps 724 mmHg 77%
    23:00 +29°C° 1.1 mm 4 mps 724 mmHg 79%
    Show more